Location: Cronhütte
(48.9135°N, 9.6869°E)
Time: 21:38:37
(UTC+00:00)

Cosmos 2098 Rocket - Pass Details

Date: 23 May 2024
Orbit: 360 x 1020 km, 82.9° (Epoch: 14 June)

Event Time Altitude Azimuth Distance (km) Brightness Sun altitude
Rises 02:36:49 0° 343° (NNW) 3,081 7.0 -7.6°
Reaches altitude 10° 02:39:04 10° 335° (NNW) 2,261 6.2 -7.3°
Maximum altitude 02:43:48 38° 269° (W) 1,259 4.3 -6.7°
Drops below altitude 10° 02:49:15 10° 204° (SSW) 2,621 5.7 -6.1°
Enters shadow 02:51:43 - 197° (SSW) 3,512 6.4 -5.8°
